GW5522 Weather Reports


Display with metric or nautical units.
time (UTC)temp
F
wind
direction
speed
MPH
gust
MPH
rain 1hr
in
rain 24hr
in
rain mn
in
humidity
%
barometer
mb
20260508001914 54 347 2.0 3.0 0.00 0.00 0.00 52 1012.0
20260508001414 54 15 4.0 8.0 0.00 0.00 0.00 51 1012.0
20260508000915 55 352 3.0 6.0 0.00 0.00 0.00 52 1012.0
20260508000415 55 17 1.0 3.0 0.00 0.00 0.00 52 1012.0
20260507235914 55 248 2.0 4.0 0.00 0.00 0.00 52 1012.0
20260507235414 55 332 1.0 3.0 0.00 0.00 0.00 52 1012.0
20260507234915 55 352 2.0 5.0 0.00 0.00 0.00 51 1012.0
20260507234414 55 8 3.0 7.0 0.00 0.00 0.00 50 1011.0
20260507233915 55 10 2.0 7.0 0.00 0.00 0.00 49 1011.0
20260507233415 56 13 7.0 11.0 0.00 0.00 0.00 49 1011.0
20260507232914 57 11 5.0 12.0 0.00 0.00 0.00 47 1011.0
20260507232414 57 339 4.0 10.0 0.00 0.00 0.00 46 1011.0
20260507231914 57 359 3.0 6.0 0.00 0.00 0.00 44 1011.0
20260507231422 57 346 2.0 5.0 0.00 0.00 0.00 44 1011.0
20260507230914 57 27 2.0 4.0 0.00 0.00 0.00 43 1011.0
20260507230415 58 323 1.0 3.0 0.00 0.00 0.00 43 1011.0
20260507225914 58 285 2.0 5.0 0.00 0.00 0.00 42 1011.0
20260507225415 58 325 2.0 5.0 0.00 0.00 0.00 42 1011.0
20260507224915 58 348 2.0 4.0 0.00 0.00 0.00 41 1011.0
20260507224415 58 313 2.0 5.0 0.00 0.00 0.00 41 1011.0
20260507223914 59 271 2.0 4.0 0.00 0.00 0.00 41 1011.0
20260507223415 60 297 2.0 6.0 0.00 0.00 0.00 41 1011.0
20260507222914 60 287 1.0 4.0 0.00 0.00 0.00 40 1011.0
20260507222415 60 218 3.0 6.0 0.00 0.00 0.00 40 1011.0
20260507221915 60 315 1.0 3.0 0.00 0.00 0.00 40 1011.0
20260507221414 60 213 3.0 7.0 0.00 0.00 0.00 41 1011.0
20260507220914 61 284 2.0 4.0 0.00 0.00 0.00 40 1011.0
20260507220415 61 335 2.0 5.0 0.00 0.00 0.00 39 1011.0
20260507215914 61 327 3.0 5.0 0.00 0.00 0.00 38 1011.0
20260507215414 62 7 4.0 8.0 0.00 0.00 0.00 38 1011.0
20260507214915 62 331 3.0 6.0 0.00 0.00 0.00 37 1010.0
20260507214414 62 311 1.0 4.0 0.00 0.00 0.00 38 1010.0
20260507213914 62 6 2.0 4.0 0.00 0.00 0.00 38 1010.0
20260507213415 62 292 1.0 4.0 0.00 0.00 0.00 39 1010.0
20260507212914 62 1 3.0 5.0 0.00 0.00 0.00 40 1010.0
20260507212415 62 355 3.0 7.0 0.00 0.00 0.00 39 1010.0
20260507211914 62 317 1.0 4.0 0.00 0.00 0.00 40 1010.0
20260507211415 62 278 3.0 6.0 0.00 0.00 0.00 39 1010.0
20260507210915 63 14 1.0 4.0 0.00 0.00 0.00 37 1010.0
20260507210415 63 352 2.0 4.0 0.00 0.00 0.00 39 1010.0
20260507205914 62 335 2.0 4.0 0.00 0.00 0.00 40 1010.0
20260507205414 62 0 4.0 9.0 0.00 0.00 0.00 39 1010.0
20260507204914 62 7 5.0 8.0 0.00 0.00 0.00 39 1010.0
20260507204414 62 276 2.0 4.0 0.00 0.00 0.00 40 1010.0
20260507203915 62 18 1.0 4.0 0.00 0.00 0.00 40 1010.0
20260507203414 61 330 2.0 4.0 0.00 0.00 0.00 41 1010.0
20260507202915 62 330 2.0 4.0 0.00 0.00 0.00 40 1010.0
20260507202414 62 290 2.0 5.0 0.00 0.00 0.00 40 1010.0
20260507201917 61 322 3.0 6.0 0.00 0.00 0.00 40 1010.0
20260507201415 62 296 2.0 4.0 0.00 0.00 0.00 39 1010.0
20260507200915 62 339 2.0 5.0 0.00 0.00 0.00 39 1010.0
20260507200414 62 261 2.0 4.0 0.00 0.00 0.00 38 1010.0
20260507195915 62 317 1.0 3.0 0.00 0.00 0.00 38 1010.0
20260507195414 62 338 4.0 5.0 0.00 0.00 0.00 39 1010.0
20260507194915 61 26 1.0 3.0 0.00 0.00 0.00 41 1011.0
20260507194416 61 7 3.0 6.0 0.00 0.00 0.00 40 1011.0
20260507193914 62 359 3.0 6.0 0.00 0.00 0.00 39 1011.0
20260507193414 63 337 2.0 3.0 0.00 0.00 0.00 37 1011.0
20260507192915 62 260 1.0 3.0 0.00 0.00 0.00 41 1011.0
20260507192415 62 294 1.0 3.0 0.00 0.00 0.00 41 1011.0
20260507191914 62 6 4.0 6.0 0.00 0.00 0.00 39 1011.0
20260507191415 62 297 2.0 5.0 0.00 0.00 0.00 39 1011.0
20260507190915 63 190 2.0 7.0 0.00 0.00 0.00 39 1011.0
20260507190414 63 0 3.0 6.0 0.00 0.00 0.00 37 1011.0
20260507185914 63 169 3.0 6.0 0.00 0.00 0.00 37 1011.0
20260507185414 63 278 4.0 10.0 0.00 0.00 0.00 38 1011.0
20260507184914 62 200 3.0 6.0 0.00 0.00 0.00 40 1011.0
20260507184415 63 122 2.0 9.0 0.00 0.00 0.00 41 1011.0
20260507183914 62 335 0.0 2.0 0.00 0.00 0.00 40 1011.0
20260507183417 61 334 4.0 7.0 0.00 0.00 0.00 41 1011.0
20260507182914 62 183 2.0 6.0 0.00 0.00 0.00 39 1011.0
20260507182415 61 2 3.0 6.0 0.00 0.00 0.00 41 1011.0
20260507181915 61 353 4.0 6.0 0.00 0.00 0.00 41 1011.0
20260507181414 61 238 2.0 5.0 0.00 0.00 0.00 40 1011.0
20260507180914 61 315 2.0 6.0 0.00 0.00 0.00 40 1011.0
20260507180415 60 335 2.0 5.0 0.00 0.00 0.00 44 1011.0
20260507175914 60 22 1.0 4.0 0.00 0.00 0.00 42 1011.0
20260507175415 60 10 1.0 4.0 0.00 0.00 0.00 43 1011.0
20260507174917 61 276 2.0 3.0 0.00 0.00 0.00 39 1011.0
20260507174414 61 338 0.0 3.0 0.00 0.00 0.00 40 1011.0
20260507173915 60 204 1.0 6.0 0.00 0.00 0.00 44 1011.0
20260507173415 58 339 3.0 8.0 0.00 0.00 0.00 45 1011.0
20260507172914 58 299 3.0 5.0 0.00 0.00 0.00 45 1011.0
20260507172422 58 178 2.0 5.0 0.00 0.00 0.00 44 1011.0
20260507171915 59 192 3.0 6.0 0.00 0.00 0.00 44 1011.0
20260507171414 59 267 1.0 4.0 0.00 0.00 0.00 44 1011.0
20260507170914 58 240 2.0 5.0 0.00 0.00 0.00 45 1011.0
20260507170414 59 157 0.0 1.0 0.00 0.00 0.00 45 1011.0
20260507165914 59 335 0.0 3.0 0.00 0.00 0.00 44 1011.0
20260507165416 59 333 3.0 5.0 0.00 0.00 0.00 45 1011.0
20260507164914 59 69 1.0 3.0 0.00 0.00 0.00 46 1012.0
20260507164415 59 257 3.0 8.0 0.00 0.00 0.00 45 1012.0
20260507163915 59 333 2.0 5.0 0.00 0.00 0.00 45 1012.0
20260507163415 58 188 2.0 4.0 0.00 0.00 0.00 46 1012.0
20260507162916 57 165 2.0 4.0 0.00 0.00 0.00 48 1012.0
20260507162415 58 171 2.0 4.0 0.00 0.00 0.00 48 1012.0
20260507161915 58 230 0.0 4.0 0.00 0.00 0.00 45 1012.0
20260507161414 58 208 2.0 6.0 0.00 0.00 0.00 47 1012.0
20260507160915 57 307 0.0 2.0 0.00 0.00 0.00 50 1012.0
20260507160414 57 0 0.0 1.0 0.00 0.00 0.00 51 1012.0
20260507155915 57 298 0.0 0.0 0.00 0.00 0.00 50 1012.0
20260507155414 56 280 2.0 4.0 0.00 0.00 0.00 51 1012.0
20260507154914 56 9 3.0 5.0 0.00 0.00 0.00 50 1012.0
20260507154415 56 326 2.0 6.0 0.00 0.00 0.00 51 1012.0
20260507153915 57 26 2.0 4.0 0.00 0.00 0.00 50 1012.0
20260507153415 57 353 2.0 3.0 0.00 0.00 0.00 51 1012.0
20260507152916 57 212 2.0 4.0 0.00 0.00 0.00 47 1012.0
20260507152414 57 8 3.0 8.0 0.00 0.00 0.00 50 1012.0
20260507151915 56 24 1.0 2.0 0.00 0.00 0.00 52 1012.0
20260507151416 57 17 1.0 4.0 0.00 0.00 0.00 51 1012.0
20260507150914 57 271 2.0 5.0 0.00 0.00 0.00 49 1012.0
20260507150415 57 204 2.0 4.0 0.00 0.00 0.00 51 1012.0
20260507145914 57 158 1.0 3.0 0.00 0.00 0.00 49 1012.0
20260507145414 56 191 1.0 3.0 0.00 0.00 0.00 51 1012.0
20260507144915 57 352 1.0 3.0 0.00 0.00 0.00 53 1012.0
20260507144415 57 52 1.0 4.0 0.00 0.00 0.00 49 1013.0
20260507143915 57 336 1.0 4.0 0.00 0.00 0.00 51 1013.0
20260507143417 57 216 2.0 4.0 0.00 0.00 0.00 52 1013.0
20260507142914 57 298 1.0 3.0 0.00 0.00 0.00 52 1013.0
20260507142414 57 316 2.0 6.0 0.00 0.00 0.00 53 1013.0
20260507141914 56 9 1.0 3.0 0.00 0.00 0.00 56 1013.0
20260507141416 55 186 2.0 5.0 0.00 0.00 0.00 56 1013.0
20260507140915 55 190 4.0 6.0 0.00 0.00 0.00 56 1013.0
20260507140414 54 320 2.0 4.0 0.00 0.00 0.00 57 1013.0
20260507135914 53 341 0.0 2.0 0.00 0.00 0.00 61 1013.0
20260507135414 53 311 0.0 2.0 0.00 0.00 0.00 63 1013.0
20260507134915 52 0 0.0 0.0 0.00 0.00 0.00 63 1013.0
20260507134414 51 336 1.0 2.0 0.00 0.00 0.00 65 1013.0
20260507133915 50 34 1.0 3.0 0.00 0.00 0.00 66 1013.0
20260507133415 50 226 2.0 3.0 0.00 0.00 0.00 69 1013.0
20260507132915 49 336 0.0 2.0 0.00 0.00 0.00 73 1013.0
20260507132414 48 21 2.0 4.0 0.00 0.00 0.00 76 1013.0
20260507131915 47 47 0.0 2.0 0.00 0.00 0.00 79 1013.0
20260507131416 47 12 1.0 2.0 0.00 0.00 0.00 83 1013.0
20260507130915 46 52 1.0 2.0 0.00 0.00 0.00 91 1013.0
20260507130415 45 18 2.0 3.0 0.00 0.00 0.00 95 1013.0
20260507125914 44 6 2.0 3.0 0.00 0.00 0.00 97 1014.0
20260507125417 43 50 1.0 2.0 0.00 0.00 0.00 97 1014.0
20260507124915 42 46 2.0 3.0 0.00 0.00 0.00 98 1013.0
20260507124415 42 0 2.0 3.0 0.00 0.00 0.00 98 1014.0
20260507123915 41 28 2.0 4.0 0.00 0.00 0.00 98 1014.0
20260507123415 40 15 1.0 2.0 0.00 0.00 0.00 98 1014.0
20260507122914 40 12 0.0 2.0 0.00 0.00 0.00 98 1013.0
20260507122414 39 185 0.0 2.0 0.00 0.00 0.00 98 1014.0
20260507121915 39 10 0.0 1.0 0.00 0.00 0.00 98 1013.0
20260507121414 39 0 0.0 0.0 0.00 0.00 0.00 98 1013.0
20260507120914 38 0 0.0 0.0 0.00 0.00 0.00 98 1014.0
20260507120416 38 0 0.0 0.0 0.00 0.00 0.00 98 1014.0
20260507115914 38 0 0.0 0.0 0.00 0.00 0.00 98 1014.0
20260507115414 38 200 0.0 2.0 0.00 0.00 0.00 98 1014.0
20260507114914 38 254 0.0 0.0 0.00 0.00 0.00 98 1014.0
20260507114414 38 0 0.0 0.0 0.00 0.00 0.00 98 1014.0
20260507113915 37 328 0.0 1.0 0.00 0.00 0.00 98 1014.0
20260507113415 37 24 0.0 2.0 0.00 0.00 0.00 98 1014.0
20260507112914 37 0 0.0 0.0 0.00 0.00 0.00 98 1014.0
20260507112417 37 0 0.0 0.0 0.00 0.00 0.00 98 1014.0
20260507111914 37 192 3.0 4.0 0.00 0.00 0.00 98 1013.0
20260507111414 37 197 1.0 2.0 0.00 0.00 0.00 98 1014.0
20260507110914 37 244 0.0 1.0 0.00 0.00 0.00 98 1014.0
20260507110415 36 0 0.0 0.0 0.00 0.00 0.00 98 1013.0
20260507105915 37 191 0.0 2.0 0.00 0.00 0.00 97 1013.0
20260507105414 37 0 0.0 0.0 0.00 0.00 0.00 97 1013.0
20260507104915 36 0 0.0 0.0 0.00 0.00 0.00 98 1013.0
20260507104416 36 0 0.0 0.0 0.00 0.00 0.00 97 1013.0
20260507103914 36 0 0.0 0.0 0.00 0.00 0.00 97 1013.0
20260507103414 36 0 0.0 0.0 0.00 0.00 0.00 97 1013.0
20260507102914 36 0 0.0 0.0 0.00 0.00 0.00 97 1013.0
20260507102414 36 0 0.0 0.0 0.00 0.00 0.00 97 1013.0
20260507101914 35 0 0.0 0.0 0.00 0.00 0.00 97 1013.0
20260507101414 35 0 0.0 0.0 0.00 0.00 0.00 97 1013.0
20260507100915 35 0 0.0 0.0 0.00 0.00 0.00 97 1013.0
20260507100415 35 0 0.0 0.0 0.00 0.00 0.00 97 1013.0
20260507095914 35 0 0.0 0.0 0.00 0.00 0.00 97 1013.0
20260507095415 35 0 0.0 0.0 0.00 0.00 0.00 97 1013.0
20260507094914 35 0 0.0 0.0 0.00 0.00 0.00 97 1013.0
20260507094415 35 0 0.0 0.0 0.00 0.00 0.00 97 1013.0
20260507093914 35 0 0.0 0.0 0.00 0.00 0.00 97 1013.0
20260507093414 35 0 0.0 0.0 0.00 0.00 0.00 97 1013.0
20260507092914 35 0 0.0 0.0 0.00 0.00 0.00 97 1013.0
20260507092415 35 0 0.0 0.0 0.00 0.00 0.00 96 1013.0
20260507091915 35 0 0.0 0.0 0.00 0.00 0.00 96 1013.0
20260507091414 35 0 0.0 0.0 0.00 0.00 0.00 96 1013.0
20260507090915 35 0 0.0 0.0 0.00 0.00 0.00 96 1013.0
20260507090415 36 0 0.0 0.0 0.00 0.00 0.00 96 1013.0
20260507085916 36 0 0.0 0.0 0.00 0.00 0.00 96 1013.0
20260507085416 36 0 0.0 0.0 0.00 0.00 0.00 96 1013.0
20260507084915 36 0 0.0 0.0 0.00 0.00 0.00 96 1013.0
20260507084414 36 0 0.0 0.0 0.00 0.00 0.00 96 1013.0
20260507083915 36 0 0.0 0.0 0.00 0.00 0.00 96 1013.0
20260507083414 37 0 0.0 0.0 0.00 0.00 0.00 96 1013.0
20260507082914 37 0 0.0 0.0 0.00 0.00 0.00 96 1013.0
20260507082415 37 0 0.0 0.0 0.00 0.00 0.00 95 1013.0
20260507081915 37 0 0.0 0.0 0.00 0.00 0.00 95 1013.0
20260507081414 37 0 0.0 0.0 0.00 0.00 0.00 95 1013.0
20260507080914 37 0 0.0 0.0 0.00 0.00 0.00 95 1013.0
20260507080414 37 0 0.0 0.0 0.00 0.00 0.00 95 1013.0
20260507075914 37 0 0.0 0.0 0.00 0.00 0.00 95 1013.0
20260507075415 38 0 0.0 0.0 0.00 0.00 0.00 95 1013.0
20260507074914 38 0 0.0 0.0 0.00 0.00 0.00 94 1013.0
20260507074415 38 0 0.0 0.0 0.00 0.00 0.00 94 1013.0
20260507073914 38 0 0.0 0.0 0.00 0.00 0.00 94 1013.0
20260507073414 38 0 0.0 0.0 0.00 0.00 0.00 94 1013.0
20260507072914 38 0 0.0 0.0 0.00 0.00 0.00 94 1013.0
20260507072414 39 0 0.0 0.0 0.00 0.00 0.00 93 1013.0
20260507071914 39 0 0.0 0.0 0.00 0.00 0.00 93 1013.0
20260507071420 39 0 0.0 0.0 0.00 0.00 0.00 93 1013.0
20260507070914 40 0 0.0 0.0 0.00 0.00 0.00 93 1013.0
20260507070414 40 0 0.0 0.0 0.00 0.00 0.00 93 1013.0
20260507065914 40 0 0.0 0.0 0.00 0.00 0.00 92 1013.0
20260507065415 40 0 0.0 0.0 0.00 0.00 0.00 92 1013.0
20260507064914 40 0 0.0 0.0 0.00 0.00 0.00 91 1013.0
20260507064415 41 0 0.0 0.0 0.00 0.00 0.00 91 1013.0
20260507063916 41 0 0.0 0.0 0.00 0.00 0.00 90 1013.0
20260507063415 41 0 0.0 0.0 0.00 0.00 0.00 90 1013.0
20260507062914 42 0 0.0 0.0 0.00 0.00 0.00 89 1013.0
20260507062414 42 0 0.0 0.0 0.00 0.00 0.00 88 1013.0
20260507061915 42 0 0.0 0.0 0.00 0.00 0.00 87 1013.0
20260507061415 42 0 0.0 0.0 0.00 0.00 0.00 86 1014.0
20260507060914 43 0 0.0 0.0 0.00 0.00 0.00 85 1014.0
20260507060414 43 0 0.0 0.0 0.00 0.00 0.00 84 1014.0
20260507055914 43 0 0.0 0.0 0.00 0.00 0.00 84 1014.0
20260507055414 44 0 0.0 0.0 0.00 0.00 0.00 83 1014.0
20260507054914 44 0 0.0 0.0 0.00 0.00 0.00 82 1014.0
20260507054415 44 0 0.0 0.0 0.00 0.00 0.00 81 1014.0
20260507053914 45 0 0.0 0.0 0.00 0.00 0.00 79 1014.0
20260507053414 45 0 0.0 0.0 0.00 0.00 0.00 78 1014.0
20260507052914 45 0 0.0 0.0 0.00 0.00 0.00 78 1014.0
20260507052414 46 0 0.0 0.0 0.00 0.00 0.00 77 1014.0
20260507051915 46 0 0.0 0.0 0.00 0.00 0.00 77 1014.0
20260507051414 46 0 0.0 0.0 0.00 0.00 0.00 76 1014.0
20260507050914 46 0 0.0 0.0 0.00 0.00 0.00 74 1014.0
20260507050416 46 0 0.0 0.0 0.00 0.00 0.00 75 1014.0
20260507045914 46 0 0.0 0.0 0.00 0.00 0.00 75 1014.0
20260507045415 46 0 0.0 0.0 0.00 0.00 0.00 73 1014.0
20260507044915 46 0 0.0 0.0 0.00 0.00 0.00 74 1014.0
20260507044415 47 0 0.0 0.0 0.00 0.00 0.00 74 1014.0
20260507043924 47 295 0.0 0.0 0.00 0.00 0.00 72 1014.0
20260507043414 47 304 0.0 1.0 0.00 0.00 0.00 72 1014.0
20260507042915 47 302 0.0 2.0 0.00 0.00 0.00 74 1014.0
20260507042414 47 0 0.0 0.0 0.00 0.00 0.00 74 1014.0
20260507041914 47 0 0.0 0.0 0.00 0.00 0.00 72 1014.0
20260507041414 47 0 0.0 0.0 0.00 0.00 0.00 72 1014.0
20260507040915 47 0 0.0 0.0 0.00 0.00 0.00 71 1014.0
20260507040414 47 28 1.0 2.0 0.00 0.00 0.00 70 1014.0
20260507035914 47 29 2.0 4.0 0.00 0.00 0.43 71 1014.0
20260507035414 47 0 0.0 0.0 0.00 0.00 0.43 72 1014.0
20260507034914 47 353 0.0 2.0 0.00 0.00 0.43 71 1014.0
20260507034415 47 0 0.0 0.0 0.00 0.00 0.43 71 1014.0
20260507033915 47 345 0.0 0.0 0.00 0.00 0.43 72 1014.0
20260507033415 47 328 0.0 1.0 0.00 0.00 0.43 72 1014.0
20260507032915 47 353 0.0 1.0 0.00 0.00 0.43 72 1014.0
20260507032415 47 320 0.0 1.0 0.00 0.00 0.43 72 1014.0
20260507031914 47 39 0.0 1.0 0.00 0.00 0.43 73 1014.0
20260507031415 47 317 0.0 2.0 0.00 0.00 0.43 72 1014.0
20260507030914 47 0 0.0 0.0 0.00 0.00 0.43 72 1014.0
20260507030415 47 0 0.0 0.0 0.00 0.00 0.43 74 1014.0
20260507025914 47 0 0.0 0.0 0.00 0.00 0.43 72 1014.0
20260507025415 47 0 0.0 0.0 0.00 0.00 0.43 73 1014.0
20260507024915 47 0 0.0 0.0 0.00 0.00 0.43 72 1014.0
20260507024415 47 0 0.0 0.0 0.00 0.00 0.43 71 1014.0
20260507023914 47 0 0.0 0.0 0.00 0.00 0.43 70 1014.0
20260507023415 47 0 0.0 0.0 0.00 0.00 0.43 72 1014.0
20260507022914 47 0 0.0 0.0 0.00 0.00 0.43 72 1014.0
20260507022414 47 0 0.0 0.0 0.00 0.00 0.43 71 1014.0
20260507021914 48 0 0.0 0.0 0.00 0.00 0.43 71 1013.0
20260507021414 48 0 0.0 0.0 0.00 0.00 0.43 70 1013.0
20260507020914 48 308 0.0 1.0 0.00 0.00 0.43 68 1013.0
20260507020414 48 0 0.0 0.0 0.00 0.00 0.43 68 1013.0
20260507015914 49 0 0.0 0.0 0.00 0.00 0.43 68 1013.0
20260507015415 49 0 0.0 0.0 0.00 0.00 0.43 67 1013.0
20260507014914 49 0 0.0 0.0 0.00 0.00 0.43 65 1013.0
20260507014415 49 0 0.0 0.0 0.00 0.00 0.43 64 1013.0
20260507013915 49 354 0.0 3.0 0.00 0.00 0.43 63 1013.0
20260507013414 50 35 0.0 2.0 0.00 0.00 0.43 63 1013.0
20260507012915 50 1 1.0 2.0 0.00 0.00 0.43 63 1013.0
20260507012416 50 0 0.0 0.0 0.00 0.00 0.43 64 1013.0
20260507011915 50 7 0.0 0.0 0.00 0.00 0.43 63 1013.0
20260507011414 50 346 0.0 1.0 0.00 0.00 0.43 63 1013.0
20260507010915 50 0 0.0 0.0 0.00 0.00 0.43 61 1013.0
20260507010415 51 0 0.0 0.0 0.00 0.00 0.43 61 1013.0
20260507005914 51 23 0.0 2.0 0.00 0.00 0.43 60 1013.0
20260507005415 51 55 0.0 2.0 0.00 0.00 0.43 61 1013.0
20260507004914 51 339 0.0 2.0 0.00 0.00 0.43 59 1013.0
20260507004414 51 15 1.0 3.0 0.00 0.00 0.43 59 1013.0
20260507003914 51 353 0.0 3.0 0.00 0.00 0.43 57 1013.0
20260507003415 51 41 0.0 2.0 0.00 0.00 0.43 57 1013.0
20260507002914 51 352 0.0 2.0 0.00 0.00 0.43 56 1013.0
20260507002414 51 353 1.0 2.0 0.00 0.00 0.43 54 1013.0